| time (UTC) | temp F | wind direction | speed knots | gust knots | rain 1hr in | rain 24hr in | rain mn in | humidity % | barometer mb |
| 20260503071650 | 53 | 184 | 4.3 | 9.6 | 0.00 | 0.00 | 0.00 | 49 | 990.6 |
| 20260503071151 | 53 | 192 | 4.3 | 9.6 | 0.00 | 0.00 | 0.00 | 49 | 990.7 |
| 20260503070649 | 53 | 205 | 4.3 | 8.7 | 0.00 | 0.00 | 0.00 | 49 | 990.8 |
| 20260503070148 | 53 | 183 | 3.5 | 8.7 | 0.00 | 0.00 | 0.00 | 49 | 990.8 |
| 20260503060147 | 53 | 196 | 3.5 | 8.7 | 0.00 | 0.00 | 0.00 | 47 | 991.2 |
| 20260503054644 | 53 | 197 | 2.6 | 7.8 | 0.00 | 0.00 | 0.00 | 48 | 991.3 |
| 20260503054144 | 53 | 183 | 1.7 | 7.8 | 0.00 | 0.00 | 0.00 | 47 | 991.4 |
| 20260503053645 | 53 | 209 | 2.6 | 7.0 | 0.00 | 0.00 | 0.00 | 47 | 991.4 |
| 20260503053144 | 53 | 259 | 2.6 | 9.6 | 0.00 | 0.00 | 0.00 | 47 | 991.4 |
| 20260503052144 | 53 | 214 | 2.6 | 7.8 | 0.00 | 0.00 | 0.00 | 47 | 991.4 |
| 20260503051642 | 53 | 197 | 2.6 | 7.8 | 0.00 | 0.00 | 0.00 | 47 | 991.4 |
| 20260503051137 | 53 | 239 | 2.6 | 7.8 | 0.00 | 0.00 | 0.00 | 47 | 991.5 |
| 20260503050636 | 53 | 205 | 2.6 | 7.8 | 0.00 | 0.00 | 0.00 | 47 | 991.5 |
| 20260503050137 | 53 | 231 | 1.7 | 7.8 | 0.00 | 0.00 | 0.00 | 47 | 991.5 |
| 20260503045635 | 53 | 225 | 3.5 | 8.7 | 0.00 | 0.00 | 0.00 | 47 | 991.6 |
| 20260503045135 | 53 | 217 | 3.5 | 8.7 | 0.00 | 0.00 | 0.00 | 47 | 991.5 |
| 20260503043631 | 53 | 249 | 2.6 | 8.7 | 0.00 | 0.00 | 0.00 | 48 | 991.7 |
| 20260503043131 | 52 | 207 | 1.7 | 4.3 | 0.00 | 0.00 | 0.00 | 48 | 991.8 |
| 20260503042631 | 52 | 212 | 0.9 | 4.3 | 0.00 | 0.00 | 0.00 | 48 | 991.9 |
| 20260503042129 | 52 | 185 | 0.9 | 2.6 | 0.00 | 0.00 | 0.00 | 49 | 991.9 |
| 20260503041627 | 52 | 187 | 0.9 | 4.3 | 0.00 | 0.00 | 0.00 | 48 | 991.9 |
| 20260503041127 | 52 | 207 | 0.9 | 4.3 | 0.00 | 0.00 | 0.00 | 48 | 992.0 |
| 20260503040627 | 52 | 252 | 0.9 | 3.5 | 0.00 | 0.00 | 0.00 | 49 | 992.1 |
| 20260503034623 | 51 | 209 | 0.0 | 3.5 | 0.00 | 0.00 | 0.00 | 49 | 992.5 |
| 20260503034120 | 51 | 213 | 0.0 | 0.9 | 0.00 | 0.00 | 0.00 | 51 | 992.5 |
| 20260503033614 | 51 | 213 | 0.0 | 1.7 | 0.00 | 0.00 | 0.00 | 51 | 992.5 |
| 20260503033108 | 51 | 213 | 0.9 | 1.7 | 0.00 | 0.00 | 0.00 | 51 | 992.5 |
| 20260503032603 | 51 | 213 | 0.9 | 3.5 | 0.00 | 0.00 | 0.00 | 51 | 992.5 |
| 20260503032057 | 51 | 210 | 0.9 | 3.5 | 0.00 | 0.00 | 0.00 | 51 | 992.5 |
| 20260503031053 | 51 | 199 | 0.0 | 3.5 | 0.00 | 0.00 | 0.00 | 54 | 992.6 |
| 20260503030552 | 51 | 199 | 0.0 | 3.5 | 0.00 | 0.00 | 0.00 | 52 | 992.7 |
| 20260503030055 | 51 | 234 | 0.0 | 2.6 | 0.00 | 0.00 | 0.00 | 53 | 992.7 |
| 20260503025552 | 51 | 234 | 0.9 | 2.6 | 0.00 | 0.00 | 0.00 | 53 | 992.7 |
| 20260503025052 | 51 | 204 | 0.9 | 3.5 | 0.00 | 0.00 | 0.00 | 53 | 992.8 |
| 20260503024050 | 51 | 212 | 0.9 | 3.5 | 0.00 | 0.00 | 0.00 | 53 | 992.7 |
| 20260503023551 | 50 | 214 | 0.9 | 2.6 | 0.00 | 0.00 | 0.00 | 55 | 992.7 |
| 20260503023048 | 50 | 213 | 0.9 | 2.6 | 0.00 | 0.00 | 0.00 | 57 | 992.7 |
| 20260503022549 | 50 | 217 | 0.9 | 1.7 | 0.00 | 0.00 | 0.00 | 55 | 992.7 |
| 20260503021549 | 50 | 215 | 0.9 | 1.7 | 0.00 | 0.00 | 0.00 | 58 | 992.7 |
| 20260503021045 | 50 | 215 | 0.9 | 2.6 | 0.00 | 0.00 | 0.00 | 57 | 992.8 |
| 20260503020544 | 50 | 215 | 0.9 | 2.6 | 0.00 | 0.00 | 0.00 | 54 | 992.7 |
| 20260503020045 | 51 | 232 | 0.0 | 1.7 | 0.00 | 0.00 | 0.00 | 56 | 992.7 |
| 20260503015045 | 51 | 271 | 0.0 | 0.0 | 0.00 | 0.00 | 0.00 | 55 | 992.8 |
| 20260503014544 | 52 | 271 | 0.0 | 0.0 | 0.00 | 0.00 | 0.00 | 54 | 992.6 |
| 20260503013545 | 52 | 273 | 0.0 | 0.0 | 0.00 | 0.00 | 0.00 | 51 | 992.6 |
| 20260503013044 | 53 | 272 | 0.0 | 0.0 | 0.00 | 0.00 | 0.00 | 49 | 992.5 |
| 20260503012545 | 53 | 272 | 0.0 | 0.0 | 0.00 | 0.00 | 0.00 | 51 | 992.7 |
| 20260503012044 | 54 | 272 | 0.0 | 0.0 | 0.00 | 0.00 | 0.00 | 48 | 992.7 |
| 20260503011544 | 55 | 272 | 0.0 | 2.6 | 0.00 | 0.00 | 0.00 | 45 | 992.7 |
| 20260503011045 | 56 | 272 | 0.0 | 2.6 | 0.00 | 0.00 | 0.00 | 45 | 992.7 |
| 20260503010544 | 57 | 272 | 0.0 | 1.7 | 0.00 | 0.00 | 0.00 | 43 | 992.7 |
| 20260503010045 | 58 | 272 | 0.0 | 1.7 | 0.00 | 0.00 | 0.00 | 38 | 992.6 |
| 20260503005044 | 58 | 272 | 0.9 | 6.1 | 0.00 | 0.00 | 0.00 | 35 | 992.6 |
| 20260503004544 | 59 | 205 | 1.7 | 7.0 | 0.00 | 0.00 | 0.00 | 34 | 992.5 |
| 20260503004037 | 59 | 248 | 1.7 | 7.0 | 0.00 | 0.00 | 0.00 | 33 | 992.6 |
| 20260503003532 | 59 | 258 | 1.7 | 4.3 | 0.00 | 0.00 | 0.00 | 33 | 992.6 |
| 20260503002528 | 60 | 224 | 1.7 | 7.8 | 0.00 | 0.00 | 0.00 | 32 | 992.6 |
| 20260503002028 | 60 | 279 | 2.6 | 7.0 | 0.00 | 0.00 | 0.00 | 32 | 992.6 |
| 20260503001526 | 60 | 271 | 4.3 | 11.3 | 0.00 | 0.00 | 0.00 | 31 | 992.6 |
| 20260503001026 | 61 | 296 | 4.3 | 11.3 | 0.00 | 0.00 | 0.00 | 31 | 992.7 |
| 20260503000526 | 61 | 298 | 4.3 | 10.4 | 0.00 | 0.00 | 0.00 | 31 | 992.7 |
| 20260503000025 | 61 | 284 | 5.2 | 13.0 | 0.00 | 0.00 | 0.00 | 31 | 992.8 |
| 20260502235523 | 61 | 306 | 6.1 | 13.9 | 0.00 | 0.00 | 0.00 | 30 | 992.9 |
| 20260502234022 | 61 | 327 | 7.8 | 14.8 | 0.00 | 0.00 | 0.00 | 30 | 993.1 |
| 20260502233522 | 61 | 280 | 7.0 | 14.8 | 0.00 | 0.00 | 0.00 | 30 | 993.1 |
| 20260502232522 | 61 | 274 | 7.8 | 15.6 | 0.00 | 0.00 | 0.00 | 29 | 993.2 |
| 20260502231522 | 62 | 311 | 4.3 | 9.6 | 0.00 | 0.00 | 0.00 | 30 | 993.3 |
| 20260502231021 | 61 | 177 | 7.0 | 15.6 | 0.00 | 0.00 | 0.00 | 30 | 993.2 |
| 20260502230515 | 61 | 267 | 8.7 | 15.6 | 0.00 | 0.00 | 0.00 | 29 | 993.4 |
| 20260502230007 | 62 | 285 | 7.0 | 13.9 | 0.00 | 0.00 | 0.00 | 29 | 993.4 |
| 20260502225502 | 62 | 300 | 6.1 | 13.9 | 0.00 | 0.00 | 0.00 | 29 | 993.4 |
| 20260502224955 | 62 | 286 | 5.2 | 13.9 | 0.00 | 0.00 | 0.00 | 29 | 993.5 |
| 20260502224450 | 62 | 281 | 4.3 | 10.4 | 0.00 | 0.00 | 0.00 | 29 | 993.4 |
| 20260502223944 | 62 | 349 | 6.1 | 10.4 | 0.00 | 0.00 | 0.00 | 30 | 993.5 |
| 20260502221919 | 61 | 325 | 7.0 | 14.8 | 0.00 | 0.00 | 0.00 | 29 | 993.6 |
| 20260502221414 | 61 | 306 | 6.1 | 13.0 | 0.00 | 0.00 | 0.00 | 30 | 993.6 |
| 20260502220908 | 62 | 188 | 6.1 | 13.9 | 0.00 | 0.00 | 0.00 | 30 | 993.6 |
| 20260502220402 | 61 | 282 | 7.0 | 14.8 | 0.00 | 0.00 | 0.00 | 30 | 993.6 |
| 20260502215855 | 61 | 325 | 8.7 | 18.2 | 0.00 | 0.00 | 0.00 | 30 | 993.7 |
| 20260502215350 | 61 | 312 | 9.6 | 18.2 | 0.00 | 0.00 | 0.00 | 30 | 993.7 |
| 20260502214843 | 61 | 296 | 8.7 | 16.5 | 0.00 | 0.00 | 0.00 | 30 | 993.7 |
| 20260502213832 | 61 | 289 | 7.8 | 15.6 | 0.00 | 0.00 | 0.00 | 30 | 993.8 |
| 20260502213325 | 61 | 327 | 7.0 | 16.5 | 0.00 | 0.00 | 0.00 | 31 | 993.9 |
| 20260502212820 | 61 | 324 | 6.1 | 16.5 | 0.00 | 0.00 | 0.00 | 31 | 993.9 |
| 20260502212314 | 61 | 290 | 5.2 | 11.3 | 0.00 | 0.00 | 0.00 | 32 | 994.0 |
| 20260502211807 | 61 | 225 | 5.2 | 11.3 | 0.00 | 0.00 | 0.00 | 30 | 994.1 |
| 20260502211302 | 61 | 302 | 4.3 | 10.4 | 0.00 | 0.00 | 0.00 | 31 | 994.1 |
| 20260502210755 | 61 | 290 | 5.2 | 10.4 | 0.00 | 0.00 | 0.00 | 32 | 994.2 |
| 20260502210250 | 60 | 294 | 7.8 | 15.6 | 0.00 | 0.00 | 0.00 | 31 | 994.2 |
| 20260502205237 | 61 | 312 | 7.8 | 15.6 | 0.00 | 0.00 | 0.00 | 31 | 994.3 |
| 20260502204732 | 61 | 197 | 5.2 | 14.8 | 0.00 | 0.00 | 0.00 | 32 | 994.3 |
| 20260502203213 | 60 | 311 | 7.0 | 13.0 | 0.00 | 0.00 | 0.00 | 31 | 994.6 |
| 20260502202708 | 60 | 328 | 4.3 | 11.3 | 0.00 | 0.00 | 0.00 | 32 | 994.6 |
| 20260502202201 | 59 | 304 | 5.2 | 11.3 | 0.00 | 0.00 | 0.00 | 34 | 994.7 |
| 20260502201656 | 59 | 280 | 7.8 | 12.2 | 0.00 | 0.00 | 0.00 | 33 | 994.8 |
| 20260502201149 | 59 | 297 | 7.0 | 15.6 | 0.00 | 0.00 | 0.00 | 32 | 994.8 |
| 20260502200138 | 60 | 13 | 4.3 | 9.6 | 0.00 | 0.00 | 0.00 | 34 | 994.8 |
| 20260502195631 | 59 | 320 | 4.3 | 9.6 | 0.00 | 0.00 | 0.00 | 33 | 994.9 |
| 20260502195126 | 58 | 313 | 4.3 | 8.7 | 0.00 | 0.00 | 0.00 | 33 | 995.0 |
| 20260502194114 | 58 | 300 | 6.1 | 13.9 | 0.00 | 0.00 | 0.00 | 33 | 995.2 |
| 20260502193611 | 58 | 285 | 7.0 | 13.9 | 0.00 | 0.00 | 0.00 | 33 | 995.3 |
| 20260502193110 | 59 | 304 | 5.2 | 11.3 | 0.00 | 0.00 | 0.00 | 33 | 995.4 |
| 20260502192610 | 59 | 332 | 5.2 | 13.0 | 0.00 | 0.00 | 0.00 | 33 | 995.5 |
| 20260502192110 | 58 | 316 | 6.1 | 13.0 | 0.00 | 0.00 | 0.00 | 35 | 995.5 |
| 20260502191609 | 58 | 286 | 5.2 | 13.0 | 0.00 | 0.00 | 0.00 | 34 | 995.6 |
| 20260502191108 | 58 | 234 | 5.2 | 13.0 | 0.00 | 0.00 | 0.00 | 35 | 995.6 |
| 20260502190605 | 58 | 288 | 5.2 | 12.2 | 0.00 | 0.00 | 0.00 | 35 | 995.7 |
| 20260502190106 | 57 | 282 | 6.1 | 13.9 | 0.00 | 0.00 | 0.00 | 35 | 995.9 |
| 20260502185605 | 58 | 262 | 6.1 | 15.6 | 0.00 | 0.00 | 0.00 | 34 | 995.8 |
| 20260502185106 | 58 | 273 | 5.2 | 15.6 | 0.00 | 0.00 | 0.00 | 33 | 995.9 |
| 20260502184605 | 58 | 153 | 6.1 | 13.9 | 0.00 | 0.00 | 0.00 | 35 | 995.9 |
| 20260502184106 | 58 | 271 | 6.1 | 13.9 | 0.00 | 0.00 | 0.00 | 34 | 996.1 |
| 20260502183606 | 58 | 308 | 7.0 | 15.6 | 0.00 | 0.00 | 0.00 | 34 | 996.2 |
| 20260502183105 | 57 | 323 | 6.1 | 15.6 | 0.00 | 0.00 | 0.00 | 34 | 996.2 |
| 20260502182605 | 57 | 324 | 4.3 | 8.7 | 0.00 | 0.00 | 0.00 | 35 | 996.3 |
| 20260502182105 | 56 | 28 | 6.1 | 11.3 | 0.00 | 0.00 | 0.00 | 36 | 996.3 |
| 20260502181606 | 56 | 260 | 7.0 | 12.2 | 0.00 | 0.00 | 0.00 | 36 | 996.4 |
| 20260502181105 | 56 | 281 | 6.1 | 12.2 | 0.00 | 0.00 | 0.00 | 36 | 996.5 |
| 20260502180600 | 56 | 298 | 4.3 | 9.6 | 0.00 | 0.00 | 0.00 | 35 | 996.4 |
| 20260502164053 | 54 | 294 | 5.2 | 10.4 | 0.00 | 0.00 | 0.00 | 39 | 997.2 |
| 20260502163553 | 54 | 303 | 5.2 | 10.4 | 0.00 | 0.00 | 0.00 | 41 | 997.3 |
| 20260502163053 | 54 | 32 | 5.2 | 10.4 | 0.00 | 0.00 | 0.00 | 41 | 997.3 |
| 20260502162553 | 54 | 0 | 5.2 | 13.9 | 0.00 | 0.00 | 0.00 | 41 | 997.2 |
| 20260502162053 | 54 | 13 | 6.1 | 13.9 | 0.00 | 0.00 | 0.00 | 39 | 997.3 |
| 20260502161551 | 54 | 32 | 6.1 | 10.4 | 0.00 | 0.00 | 0.00 | 40 | 997.3 |
| 20260502161052 | 54 | 14 | 5.2 | 9.6 | 0.00 | 0.00 | 0.00 | 40 | 997.4 |
| 20260502160551 | 54 | 355 | 5.2 | 11.3 | 0.00 | 0.00 | 0.00 | 40 | 997.4 |
| 20260502152049 | 53 | 331 | 5.2 | 14.8 | 0.00 | 0.00 | 0.00 | 45 | 997.7 |
| 20260502151549 | 53 | 295 | 3.5 | 9.6 | 0.00 | 0.00 | 0.00 | 45 | 997.6 |
| 20260502151049 | 52 | 304 | 5.2 | 10.4 | 0.00 | 0.00 | 0.00 | 48 | 997.6 |
| 20260502150550 | 52 | 298 | 6.1 | 11.3 | 0.00 | 0.00 | 0.00 | 47 | 997.7 |
| 20260502130422 | 43 | 292 | 2.6 | 4.3 | 0.00 | 0.00 | 0.00 | 83 | 997.8 |
| 20260502123346 | 38 | 301 | 0.0 | 0.0 | 0.00 | 0.00 | 0.00 | 90 | 998.1 |
| 20260502122841 | 37 | 300 | 0.0 | 0.0 | 0.00 | 0.00 | 0.00 | 91 | 998.1 |
| 20260502122334 | 36 | 300 | 0.0 | 0.0 | 0.00 | 0.00 | 0.00 | 91 | 998.0 |
| 20260502121829 | 35 | 300 | 0.0 | 0.0 | 0.00 | 0.00 | 0.00 | 91 | 998.0 |
| 20260502121323 | 35 | 299 | 0.0 | 0.0 | 0.00 | 0.00 | 0.00 | 91 | 998.0 |
| 20260502120311 | 33 | 298 | 0.0 | 0.0 | 0.00 | 0.00 | 0.00 | 91 | 997.9 |
| 20260502115804 | 33 | 298 | 0.0 | 1.7 | 0.00 | 0.00 | 0.00 | 91 | 997.8 |
| 20260502115258 | 33 | 298 | 0.9 | 1.7 | 0.00 | 0.00 | 0.00 | 91 | 997.8 |
| 20260502114753 | 32 | 298 | 0.0 | 1.7 | 0.00 | 0.00 | 0.00 | 91 | 997.8 |
| 20260502114246 | 32 | 297 | 0.0 | 1.7 | 0.00 | 0.00 | 0.00 | 91 | 997.6 |
| 20260502113741 | 31 | 296 | 0.9 | 1.7 | 0.00 | 0.00 | 0.00 | 91 | 997.6 |
| 20260502112223 | 31 | 292 | 0.9 | 2.6 | 0.00 | 0.00 | 0.00 | 90 | 997.6 |
| 20260502111210 | 31 | 291 | 0.9 | 2.6 | 0.00 | 0.00 | 0.00 | 90 | 997.5 |
| 20260502110705 | 31 | 290 | 0.0 | 2.6 | 0.00 | 0.00 | 0.00 | 90 | 997.4 |
| 20260502110158 | 31 | 288 | 0.0 | 0.0 | 0.00 | 0.00 | 0.00 | 90 | 997.5 |
| 20260502105653 | 31 | 288 | 0.0 | 0.0 | 0.00 | 0.00 | 0.00 | 90 | 997.5 |
| 20260502104640 | 31 | 288 | 0.0 | 1.7 | 0.00 | 0.00 | 0.00 | 90 | 997.5 |
| 20260502104135 | 31 | 288 | 0.9 | 1.7 | 0.00 | 0.00 | 0.00 | 90 | 997.5 |
| 20260502103628 | 31 | 288 | 1.7 | 2.6 | 0.00 | 0.00 | 0.00 | 89 | 997.5 |
| 20260502103123 | 31 | 287 | 1.7 | 2.6 | 0.00 | 0.00 | 0.00 | 90 | 997.6 |
| 20260502102110 | 31 | 286 | 0.9 | 1.7 | 0.00 | 0.00 | 0.00 | 89 | 997.5 |
| 20260502101605 | 31 | 284 | 0.9 | 1.7 | 0.00 | 0.00 | 0.00 | 89 | 997.5 |
| 20260502101058 | 31 | 283 | 0.9 | 1.7 | 0.00 | 0.00 | 0.00 | 89 | 997.4 |
| 20260502100556 | 32 | 283 | 0.9 | 1.7 | 0.00 | 0.00 | 0.00 | 89 | 997.4 |
| 20260502091046 | 33 | 281 | 1.7 | 2.6 | 0.00 | 0.00 | 0.00 | 88 | 997.4 |
| 20260502090545 | 33 | 278 | 0.9 | 1.7 | 0.00 | 0.00 | 0.00 | 88 | 997.4 |